Weather History for TDCF - January, 2014

Change the Weather History Date:

Monday, January 13, 2014

  Actual Average (TDPD) Record (TDPD)
Temperature  
Mean Temperature 77 °F -  
Max Temperature 83 °F 81 °F - (-1)
Min Temperature 71 °F 73 °F - (-1)
Cooling Degree Days 12    
Growing Degree Days 27 (Base 50)    
Moisture  
Dew Point 65 °F    
Average Humidity 62    
Maximum Humidity 78    
Minimum Humidity 43    
Precipitation  
Precipitation 0.02 in - - ()
Sea Level Pressure  
Sea Level Pressure 30.02 in    
Wind  
Wind Speed 3 mph ()    
Max Wind Speed 7 mph    
Max Gust Speed 18 mph    
Visibility 8.7 miles    
Events Rain    
Averages and records for this station are not official NWS values.
T = Trace of Precipitation, MM = Missing Value Source: Averaged Metar Reports

Daily Weather History Graph

Daily Weather History Graph

Search for Another Location

Airport or City:

Trip Planner

Search our weather history database for the weather conditions in past years. The results will help you decide how hot, cold, wet, or windy it might be!

Date:

Astronomy

Jan. 13, 2014 Rise Set
Actual Time 6:35 AM AST 5:53 PM AST
Civil Twilight 6:12 AM AST 6:16 PM AST
Nautical Twilight 5:45 AM AST 6:42 PM AST
Astronomical Twilight 5:19 AM AST 7:09 PM AST
Moon 4:01 PM AST (1/13) 4:22 AM AST (1/13)
Length of Visible Light 12h 04m
Length of Day
11h 18m
Waxing Gibbous, 94% of the Moon is Illuminated
Jan 13
Waxing Gibbous
Jan 16
Full
Jan 24
Last Quarter
Jan 30
New
Feb 6
First Quarter

Hourly Weather History & Observations

Time (AST) Temp. Heat Index Dew Point Humidity Pressure Visibility Wind Dir Wind Speed Gust Speed Precip Events Conditions
6:00 AM 75.2 °F - 64.4 °F 69% 29.98 in 6.2 mi South 2.3 mph - N/A   Partly Cloudy
7:00 AM 73.4 °F - 64.4 °F 73% 30.01 in 6.2 mi SE 1.2 mph - N/A   Partly Cloudy
8:00 AM 76 °F - 66 °F 63% 30.05 in 12 mi ENE 3.5 mph - - Rain Light Rain Showers
8:00 AM 75.2 °F - 66.2 °F 73% 30.04 in 6.2 mi ENE 3.5 mph - N/A Rain Light Rain Showers
9:00 AM 78.8 °F - 66.2 °F 65% 30.06 in 6.2 mi East 3.5 mph - N/A   Scattered Clouds
10:00 AM 78.8 °F - 68.0 °F 69% 30.06 in 6.2 mi East 1.2 mph - N/A Rain Light Rain Showers
11:00 AM 80 °F - 66 °F 53% 30.07 in 15 mi ESE 4.6 mph - - Rain Light Rain Showers
11:00 AM 78.8 °F - 66.2 °F 65% 30.06 in 6.2 mi ESE 4.6 mph - N/A   Scattered Clouds
12:00 PM 82.4 °F 83.4 °F 62.6 °F 51% 30.04 in 6.2 mi East 4.6 mph - N/A   Partly Cloudy
1:00 PM 82.4 °F 85.4 °F 68.0 °F 62% 30.01 in 6.2 mi ESE 6.9 mph - N/A   Partly Cloudy
2:00 PM 83 °F - 64 °F 43% 30.01 in 19 mi ENE 4.6 mph - -   Partly Cloudy
2:00 PM 82.4 °F 83.9 °F 64.4 °F 54% 30.01 in 6.2 mi ENE 4.6 mph - N/A   Scattered Clouds
3:00 PM 82.4 °F 83.9 °F 64.4 °F 54% 29.98 in 6.2 mi East 5.8 mph - N/A   Scattered Clouds
4:00 PM 82.4 °F 84.6 °F 66.2 °F 58% 29.98 in 6.2 mi SE 4.6 mph 18.4 mph N/A Rain Light Rain Showers
5:00 PM 80 °F - 63 °F 47% 30.00 in 17 mi SE 2.3 mph - -   Partly Cloudy
5:00 PM 80.6 °F 81.8 °F 62.6 °F 54% 29.98 in 6.2 mi SE 2.3 mph - N/A   Mostly Cloudy
6:00 PM 77.0 °F - 66.2 °F 69% 30.01 in 6.2 mi NE 2.3 mph - N/A   Mostly Cloudy
7:00 PM 75.2 °F - 64.4 °F 69% 30.01 in 6.2 mi ENE 3.5 mph - N/A   Mostly Cloudy
8:00 PM 73 °F - 66 °F 72% 30.04 in 17 mi East 1.2 mph - -   Partly Cloudy
8:00 PM 73.4 °F - 66.2 °F 78% 30.04 in 6.2 mi East 1.2 mph - N/A   Mostly Cloudy